Location: Bercimuel
(41.3983°N, 3.5711°W)
Time: 15:45:53
(UTC+00:00)

SPOT 3 Rocket - Pass Details

Date: 15 May 2026
Orbit: 774 x 790 km, 98.5° (Epoch: 10 June)

Event Time Altitude Azimuth Distance (km) Brightness Sun altitude
Exits shadow 21:09:26 27° 127° (SE) 1,461 4.4 -16.4°
Maximum altitude 21:11:50 46° 71° (ENE) 1,037 4.0 -16.8°
Drops below altitude 10° 21:16:43 10° 359° (N) 2,332 6.7 -17.4°
Sets 21:19:07 0° 353° (N) 3,263 7.7 -17.7°
